Regional Weather Roundup
Issued by NWS Upton, NY

Current Version | Previous Version | Graphics & Text | Print | Product List | Glossary Off
Versions: 1 2 3 4 5 6 7 8 9 10 11 12 13 14 15 16 17 18 19 20 21 22 23 24 25 26 27 28 29 30 31 32 33 34 35 36 37 38 39 40 41 42 43 44 45 46 47 48 49 50

000
ASUS41 KOKX 261608
RWROKX

REGIONAL WEATHER ROUNDUP
NATIONAL WEATHER SERVICE NEW YORK NY
1100 AM EST SUN FEB 26 2017

NOTE: "FAIR" INDICATES FEW OR NO CLOUDS BELOW 12,000 FEET WITH NO
SIGNIFICANT WEATHER AND/OR OBSTRUCTIONS TO VISIBILITY.

NYZ071-072-176-178-NJZ106-104-261700-
NEW YORK CITY METRO AREA

CITY           SKY/WX    TMP DP  RH WIND       PRES   REMARKS
Central Park   SUNNY     38  15  39 VRB7G24   30.02R WCI  33
Wall St Helipt NOT AVBL
LaGuardia APRT MOSUNNY   41  17  38 NW18G29   29.99R
Kennedy INTL   PTSUNNY   41  17  38 NW21G32   30.01R
Breezy Point     N/A     37 N/A N/A NW15G23     N/A  WCI  28
Newark/Liberty PTSUNNY   41  16  36 W21G32    30.01R
Teterboro      PTSUNNY   40  17  39 W16G30    30.00R WCI  31
$$

NYZ177-179-078>081-261700-
LONG ISLAND NEW YORK

CITY           SKY/WX    TMP DP  RH WIND       PRES   REMARKS
Jones Beach      N/A     37 N/A N/A NW18G24     N/A  WCI  27
Matinecock PT  NOT AVBL
Farmingdale    CLOUDY    40  19  43 NW15G25   29.98R WCI  32
MacArthur/ISP  PTSUNNY   39  19  44 NW20G33   29.96R WCI  29
Shirley        MOSUNNY   40  19  43 NW20G30   29.97R WCI  30
Westhampton    MOSUNNY   40  17  39 NW18G32   29.97R WCI  31
Southampton    NOT AVBL
Bridgehampton  NOT AVBL
East Hampton     N/A     39  19  44 W16G25    29.93R WCI  30
Montauk          N/A     41  21  44 NW13G24   29.93R
$$

NYZ052-065-067-261700-
HUDSON VALLEY

CITY           SKY/WX    TMP DP  RH WIND       PRES   REMARKS
White Plains   PTSUNNY   36  17  46 W16G28    29.96R WCI  26
Newburgh       NOT AVBL
Montgomery     CLOUDY    37  17  44 NW10G22   29.98R WCI  30
Poughkeepsie   CLOUDY    38  16  40 W13G24    29.97S WCI  30
Albany         PTSUNNY   34  14  43 NW25G36   29.98R WCI  21
$$

NJZ001-105-106-008-010-013-015-019>022-104-261700-
NEW JERSEY

CITY           SKY/WX    TMP DP  RH WIND       PRES   REMARKS
Newark/Liberty PTSUNNY   41  16  36 W21G32    30.01R
Teterboro      PTSUNNY   40  17  39 W16G30    30.00R WCI  31
Caldwell       MOSUNNY   38  14  37 NW13G29   30.02R WCI  30
Somerville     CLOUDY    38  16  40 NW13G20   30.02R WCI  30
Linden         NOT AVBL
Sussex         CLOUDY    34  16  47 NW12G21   30.01R WCI  25
Andover          N/A     35  14  42 VRB7G20   30.01R WCI  29
Trenton        CLOUDY    38  18  44 W18G26    30.05R WCI  28
Millville      PTSUNNY   40  21  46 NW18G29   30.09R WCI  31
Atlantic City  MOSUNNY   41  18  39 NW23G29   30.07R
Wrightstown    CLOUDY    40  18  41 NW17G24   30.03R WCI  31
Toms River     CLOUDY    40  20  44 NW18G24   30.05R WCI  31
Belmar         MOSUNNY  N/A N/A N/A W14G25    30.03R
$$

PAZ047>061-062-071-261700-
EASTERN PENNSYLVANIA

CITY           SKY/WX    TMP DP  RH WIND       PRES   REMARKS
Philadelphia   PTSUNNY   38  16  40 W20G32    30.10R WCI  28
Allentown      CLOUDY    36  17  46 NW9       30.05R WCI  29
Scranton       CLOUDY    32  15  49 NW18G28   30.01S WCI  20
$$

CTZ002-004>006-009-010-012-RIZ004-006-007-MAZ004-011-015-261700-
SOUTHERN NEW ENGLAND
 IN CT

CITY           SKY/WX    TMP DP  RH WIND       PRES   REMARKS
Bradley INTL   PTSUNNY   37  17  44 NW25G32   29.93R WCI  25
Hartford       PTSUNNY   38  17  42 W23G33    29.94R WCI  27
Danbury        MOSUNNY   36  14  40 NW20G26   29.96R WCI  25
Wtrbury/Oxford PTSUNNY   36  14  41 NW13G25   29.92R WCI  27
Bridgeport     SUNNY     42  16  34 W20G32    29.95R
Meriden        MOSUNNY   40  16  37 NW18G25   29.94R WCI  31
New Haven      MOSUNNY   39  19  44 NW10G23   29.94R WCI  32
Chester          N/A     37  16  41 NW15G21   29.90R WCI  28
Groton         SUNNY     42  17  36 NW21G30   29.90R
Wilimantic     PTSUNNY   40  17  39 NW21G32   29.90R WCI  30

 IN RI

CITY           SKY/WX    TMP DP  RH WIND       PRES   REMARKS
Providence     PTSUNNY   41  17  38 NW16G25   29.87R
Block Island   SUNNY     41  21  44 NW17G28   29.90R
Westerly       SUNNY     41  14  33 NW9G30    29.90R
 IN MA

CITY           SKY/WX    TMP DP  RH WIND       PRES   REMARKS
Boston         MOSUNNY   41  21  44 W21G32    29.82R
Worcester      CLOUDY    33  16  49 NW17G29   29.82R WCI  22
Westfield      CLOUDY    36  17  46 W24G32    29.90R WCI  24
Provincetown   MOSUNNY   42  24  49 W18G24    29.81R
Nantucket      MOSUNNY   43  23  45 W22G30    29.85R
$$

ANZ330-335-338-340-345-350-353-355-261700-
COASTAL MARINE OBSERVATIONS


STATION/POSITION TIME  SKY/WX   TEMP    WIND        PRES    VSBY  WAVE
                                AIR SEA DIR/SP/G                  HT/PER
                 (UTC)          (F)     (DEG/KT/KT) (MB)    (MI)  (FT/S)
NY HARB ENTRANCE 1450            38 43  300/ 19/ 27 1014.7          4/11
20 S FIRE ISLAND 1550            38 43  300/ 19/ 23 1015.0          6/ 5
GREAT SOUTH BAY  NOT AVBL
23 SSW MONTAUK P 1450            38 44              1012.9          6/11
15 E BARNEGAT LI 1530               44                N/A           5/11
HUDSON CANYON    1450               48              1014.5          8/ 7
KINGS POINT      1548            37 40              1015.6
EXECUTION ROCKS  NOT AVBL
CENTRAL LI SOUND 1530            38     290/ 17/ 23   N/A           4/ 5
EASTERN LI SOUND NOT AVBL
ROBBINS REEF     1548            37     310/ 23/ 27 1016.2
$$


>>>>>>>>>>>>>>>>>>>>>>>>>>>> KEY <<<<<<<<<<<<<<<<<<<<<<<<<<<
>                                                          <
>     SKY/WX - Sky Condition/Present Weather               <
>     TMP    - Temperature in Fahrenheit                   <
>     DP     - Dew Point in Fahrenheit                     <
>     RH     - Relative Humidity in Percent                <
>     WIND   - Direction (from) and Speed in MPH           <
>     PRES   - Mean Sea Level Pressure (inches of Hg)      <
>     WCI    - Wind Chill Index                            <
>     VSB    - VISIBILITY IN MILES                         <
>     HX     - HEAT INDEX                                  <
>     TC     - TEMPERATURE IN CELSIUS                      <
>     VRB    - VARIABLE WIND DIRECTION                     <
>                                                          <
>>>>>>>>>>>>>>>>>>>>>>>>>>>> KEY <<<<<<<<<<<<<<<<<<<<<<<<<<<



USA.gov is the U.S. government's official web portal to all federal, state and local government web resources and services.